Location: Peyton Hall Observatory
(40.3466°N, 74.6516°W)
Time: 19:30:25
(UTC-04:00)

ISS - All Passes

Search period start: 16 September 2014 00:00
Search period end: 26 September 2014 00:00
Orbit: 414 x 417 km, 51.6° (Epoch: 16 September)

Date Brightness Start Highest point End Pass type
(mag) Time Alt. Az. Time Alt. Az. Time Alt. Az.
16 Sep - 03:17:58 10° SSE 03:19:59 15° SE 03:22:01 10° E visible
16 Sep - 04:53:06 10° WSW 04:56:23 58° NW 04:59:41 10° NE visible
16 Sep - 06:31:32 10° NW 06:33:40 16° NNW 06:35:47 10° NNE daylight
16 Sep - 08:09:59 10° NNW 08:11:28 12° N 08:12:57 10° NNE daylight
16 Sep - 09:46:10 10° NW 09:49:04 27° NNE 09:51:57 10° E daylight
16 Sep - 11:22:42 10° WNW 11:25:53 42° SW 11:29:02 10° SSE daylight
17 Sep - 04:04:21 10° SW 04:07:40 80° SE 04:11:01 10° NE visible
17 Sep - 05:42:12 10° WNW 05:44:44 20° NNW 05:47:16 10° NNE visible
17 Sep - 07:21:06 10° NNW 07:22:27 12° N 07:23:48 10° NNE daylight
17 Sep - 08:57:38 10° NNW 09:00:11 20° NNE 09:02:43 10° ENE daylight
17 Sep - 10:33:53 10° NW 10:37:14 79° SW 10:40:32 10° SE daylight
18 Sep - 03:15:49 10° SSW 03:18:59 43° SE 03:22:11 10° ENE visible
18 Sep - 04:52:56 10° W 04:55:49 26° NNW 04:58:42 10° NE visible
18 Sep - 06:31:56 10° NNW 06:33:25 12° N 06:34:53 10° NNE daylight
18 Sep - 08:09:04 10° NNW 08:11:12 16° NNE 08:13:21 10° NE daylight
18 Sep - 09:45:10 10° NW 09:48:28 59° NE 09:51:45 10° ESE daylight
18 Sep - 11:22:52 10° W 11:24:51 15° SW 11:26:50 10° SSW daylight
19 Sep - 02:27:35 10° S 02:30:20 24° SE 02:33:05 10° ENE night (unlit)
19 Sep - 04:03:46 10° W 04:06:55 39° NNW 04:10:05 10° NE visible
19 Sep - 05:42:32 10° NW 05:44:21 14° N 05:46:09 10° NNE visible
19 Sep - 07:20:25 10° NNW 07:22:10 13° N 07:23:55 10° NE daylight
19 Sep - 08:56:30 10° NW 08:59:37 36° NNE 09:02:44 10° E daylight
19 Sep - 10:33:24 10° WNW 10:36:14 26° SW 10:39:04 10° SSE daylight
20 Sep - 01:39:57 10° SSE 01:41:43 14° SE 01:43:29 10° E night (unlit)
20 Sep - 03:14:45 10° WSW 03:18:03 64° NW 03:21:22 10° NE visible
20 Sep - 04:53:04 10° WNW 04:55:17 16° NNW 04:57:29 10° NNE visible
20 Sep - 06:31:37 10° NNW 06:33:04 12° N 06:34:30 10° NNE daylight
20 Sep - 08:07:50 10° NNW 08:10:41 25° NNE 08:13:30 10° E daylight
20 Sep - 09:44:19 10° WNW 09:47:32 47° SW 09:50:44 10° SSE daylight
21 Sep - 02:25:54 10° SW 02:29:13 72° SE 02:32:32 10° ENE night (unlit)
21 Sep - 04:03:37 10° WNW 04:06:13 21° NNW 04:08:49 10° NNE visible
21 Sep - 05:42:33 10° NNW 05:43:55 12° N 05:45:16 10° NNE visible
21 Sep - 07:19:10 10° NNW 07:21:39 19° NNE 07:24:06 10° ENE daylight
21 Sep - 08:55:23 10° NW 08:58:44 88° SSW 09:02:03 10° SE daylight
22 Sep - 01:37:17 10° SSW 01:40:24 38° SE 01:43:32 10° ENE night (unlit)
22 Sep - 03:14:14 10° W 03:17:10 28° NNW 03:20:07 10° NE visible
22 Sep - 04:53:12 10° NW 04:54:44 13° N 04:56:16 10° NNE visible
22 Sep - 06:30:28 10° NNW 06:32:32 15° NNE 06:34:35 10° NE daylight
22 Sep - 08:06:33 10° NW 08:09:49 53° NNE 08:13:05 10° ESE daylight
22 Sep - 09:44:01 10° W 09:46:14 17° SW 09:48:27 10° S daylight
23 Sep - 00:49:01 10° S 00:51:37 21° SE 00:54:14 10° E night (unlit)
23 Sep - 02:24:57 10° WSW 02:28:09 42° NNW 02:31:21 10° NE night (unlit)
23 Sep - 04:03:39 10° NW 04:05:32 14° NNW 04:07:25 10° NNE visible
23 Sep - 05:41:40 10° NNW 05:43:20 13° N 05:45:01 10° NE visible
23 Sep - 07:17:45 10° NW 07:20:49 33° NNE 07:23:53 10° E daylight
23 Sep - 08:54:32 10° WNW 08:57:29 29° SW 09:00:25 10° SSE daylight
24 Sep - 00:01:29 10° SSE 00:02:52 12° SE 00:04:16 10° ESE night (unlit)
24 Sep - 01:35:50 10° WSW 01:39:09 73° NW 01:42:29 10° NE night (unlit)
24 Sep - 03:14:02 10° WNW 03:16:20 17° NNW 03:18:37 10° NNE visible
24 Sep - 04:52:41 10° NNW 04:54:05 12° N 04:55:30 10° NNE visible
24 Sep - 06:28:58 10° NNW 06:31:44 23° NNE 06:34:29 10° E daylight
24 Sep - 08:05:21 10° WNW 08:08:37 54° SW 08:11:52 10° SE daylight
25 Sep - 00:46:54 10° SW 00:50:11 63° SE 00:53:30 10° ENE night (unlit)
25 Sep - 02:24:27 10° WNW 02:27:08 22° NNW 02:29:49 10° NNE night (unlit)
25 Sep - 04:03:25 10° NNW 04:04:48 12° N 04:06:10 10° NNE visible
25 Sep - 05:40:09 10° NNW 05:42:32 18° NNE 05:44:55 10° ENE visible
25 Sep - 07:16:19 10° NW 07:19:40 82° NE 07:22:59 10° SE daylight
25 Sep - 08:55:10 10° WSW 08:55:53 11° SW 08:56:36 10° SW daylight
25 Sep - 23:58:14 10° SSW 00:00:15 27° S 00:00:00 24° S night (unlit)
